Wind_Speed
20 22 23 24 25 25 26 26 27 27 28 29 30 30 31 32 32 33 33 33 33 33 34 34 35 35 35 35 35 35 35 36 35 35 34 34 33 33 34 34 33 33 32 32 32 32 33 34 35 35 36 37 37 38 39 39 40 39 38 36 34 31 29 27 26 25 24 23 22
18 19 20 21 22 22 23 24 24 25 26 27 28 28 29 30 30 31 32 32 32 33 33 34 34 34 34 34 34 34 34 34 35 35 35 34 34 34 34 34 34 34 33 33 33 33 34 35 35 36 37 38 38 39 40 40 41 41 41 39 37 35 32 29 27 26 25 25 24
19 18 18 19 20 21 22 23 24 24 25 26 27 28 29 29 30 31 32 32 33 33 34 34 35 35 35 35 34 34 34 34 35 35 36 36 36 36 35 35 34 34 34 33 33 33 34 35 36 37 38 39 39 40 41 41 42 42 43 42 40 38 35 32 29 27 26 26 25
20 20 20 20 21 21 22 24 25 26 27 28 28 29 30 31 32 33 34 34 35 36 36 37 37 37 37 37 36 36 36 36 36 36 37 38 39 39 38 37 36 35 34 34 34 34 34 34 35 36 38 39 40 41 42 42 43 43 44 43 42 41 38 35 31 29 27 27 27
21 21 21 21 22 23 24 25 27 28 29 30 31 32 33 34 35 36 36 37 37 38 39 39 40 40 40 40 40 39 39 38 38 38 39 40 40 40 40 39 38 37 35 35 35 34 35 35 36 37 38 40 42 43 43 43 44 44 45 44 44 42 41 38 34 31 28 28 28
23 23 23 23 24 26 27 28 30 31 32 33 35 35 36 37 37 38 38 39 39 39 40 40 41 41 42 42 41 41 41 41 40 40 40 40 41 41 41 40 39 38 38 37 36 36 36 36 37 38 39 40 42 44 45 45 45 45 45 45 45 44 42 40 37 33 30 29 28
24 25 25 26 27 29 30 32 33 34 36 37 37 38 38 39 39 39 39 39 39 39 39 39 40 40 40 40 40 41 41 41 41 40 40 40 40 40 41 41 40 40 39 39 39 38 39 39 39 39 40 41 42 44 45 46 46 46 46 45 45 45 44 42 39 36 32 30 29
26 26 27 29 30 31 33 34 35 37 38 38 39 39 39 39 39 39 39 39 39 38 38 38 38 38 38 38 39 39 39 40 40 40 40 40 40 40 41 41 41 41 41 41 41 41 41 41 39 39 41 42 43 45 46 46 46 46 46 46 45 45 44 43 41 38 35 32 30
27 28 29 31 32 33 34 36 37 38 39 39 40 40 40 40 40 39 39 39 38 38 38 37 37 37 37 37 38 38 39 39 40 40 40 41 41 41 42 42 42 42 42 43 43 43 42 42 41 42 42 43 43 45 46 46 46 46 46 46 45 45 44 44 43 40 37 34 32
29 30 31 32 33 34 35 36 37 38 39 40 41 41 41 41 41 41 40 40 40 40 40 39 39 39 40 40 40 40 40 41 41 42 42 42 43 43 43 44 44 44 44 44 44 44 43 43 43 43 43 44 44 45 46 46 46 46 46 45 45 44 44 44 43 41 39 37 34
30 31 32 32 34 35 36 37 38 40 41 42 43 43 43 43 43 43 43 43 43 44 44 44 44 44 44 44 44 44 45 45 45 45 45 45 45 46 46 46 46 45 45 45 45 44 44 44 44 44 44 44 44 44 45 45 45 45 45 45 44 44 44 43 43 42 41 39 36
30 31 32 33 34 36 37 39 40 41 43 44 44 45 45 45 46 46 46 47 47 47 48 48 48 48 48 48 48 48 48 48 48 48 48 48 48 48 48 48 47 47 47 46 46 45 45 45 45 44 44 44 44 43 43 43 43 43 43 44 44 44 43 43 43 42 41 40 38
31 32 33 34 36 37 39 40 42 43 44 45 45 46 46 47 47 48 48 48 49 49 49 49 49 49 49 49 49 49 49 49 49 49 49 49 49 49 49 49 48 48 47 47 46 46 45 45 45 45 44 44 43 42 41 41 41 41 41 42 43 43 44 43 43 42 41 41 39
32 33 35 36 38 39 40 41 42 43 44 44 45 46 46 47 48 48 48 49 49 49 49 49 48 48 48 48 48 48 48 48 48 48 48 49 49 48 48 48 48 47 47 46 46 45 45 44 44 44 43 43 43 42 41 40 39 40 40 41 42 43 43 43 43 42 41 41 40
33 35 36 38 39 40 41 41 42 43 43 44 45 46 46 47 47 48 48 48 48 48 48 48 48 48 48 48 47 47 47 47 47 47 47 47 48 47 47 47 46 46 45 45 44 44 44 43 43 43 42 42 42 41 40 39 39 39 39 39 40 41 43 43 43 42 41 41 40
35 36 37 38 39 40 41 41 42 43 43 44 45 45 46 46 47 47 47 48 48 48 48 48 48 49 49 48 47 47 46 46 46 46 46 46 47 47 46 46 45 45 44 44 43 43 43 43 42 42 42 42 41 41 40 39 39 38 38 38 39 40 42 43 42 42 41 41 40
36 37 38 38 39 40 41 41 42 43 44 44 45 45 46 46 47 47 48 49 49 49 49 50 50 50 49 49 49 48 47 46 46 46 45 46 46 46 46 46 45 45 45 44 44 43 43 43 43 42 42 42 41 41 40 40 39 38 38 38 38 39 40 41 41 41 41 40 40
36 37 38 39 39 40 41 42 43 43 44 45 45 46 46 47 48 49 49 50 50 50 51 51 51 50 50 50 50 49 48 47 46 46 46 46 46 46 46 46 46 46 45 45 44 44 44 44 43 43 43 42 42 41 40 40 39 39 38 38 38 39 39 40 40 40 39 38 39
37 38 38 39 40 41 42 43 43 44 45 45 46 47 48 49 49 50 50 50 50 50 50 50 51 51 51 51 51 50 49 48 48 48 48 48 47 47 47 47 47 47 46 45 45 44 44 44 44 43 43 42 41 40 40 40 40 39 39 38 38 38 38 39 39 39 38 38 38
37 38 40 41 41 42 43 43 44 45 45 46 47 48 49 50 50 50 50 51 50 50 50 50 50 51 51 51 51 52 51 50 49 49 49 49 49 48 48 48 48 47 46 46 45 45 44 44 43 43 42 41 40 40 40 40 40 40 40 40 39 39 39 39 39 39 39 39 38
39 40 41 42 42 43 44 44 45 46 46 47 48 49 50 50 50 50 50 50 50 50 50 50 50 51 51 52 52 52 52 51 50 50 50 50 50 50 50 49 48 48 47 46 46 45 45 44 44 43 42 41 41 41 41 41 41 41 40 40 40 40 40 40 39 40 40 40 39
40 41 42 42 43 44 44 45 46 47 47 48 49 49 50 50 50 50 50 49 49 50 50 50 50 51 51 52 52 52 52 52 52 52 52 52 52 52 51 50 49 49 48 48 48 48 48 47 46 45 44 43 43 42 42 42 42 42 41 41 41 42 41 40 40 40 40 41 40
41 42 43 43 44 45 45 46 47 47 48 48 49 49 49 49 49 49 49 49 49 50 50 50 51 51 51 52 52 52 52 53 53 53 53 53 52 52 51 50 49 49 49 49 49 48 48 47 46 45 44 43 43 43 43 43 42 42 42 42 42 42 42 41 41 41 40 40 40
42 43 43 44 45 45 46 47 47 47 48 48 48 48 49 49 49 49 49 49 50 50 50 51 51 51 52 52 52 52 52 52 52 52 52 52 51 50 49 48 47 47 46 46 46 46 45 45 44 43 42 41 41 41 41 42 42 42 42 42 42 42 42 42 41 40 39 38 38
43 43 44 45 45 46 46 46 47 47 47 48 48 48 48 48 49 49 49 49 50 50 51 51 51 52 52 52 51 51 51 50 50 50 50 50 49 48 47 46 45 44 45 44 45 44 43 42 41 40 40 39 39 38 39 40 40 41 40 40 40 40 41 41 40 39 38 37 37
43 44 44 45 45 45 46 46 46 47 47 47 48 48 48 48 49 49 49 50 50 51 51 51 52 51 51 51 50 50 50 49 48 48 47 47 48 47 46 45 43 43 43 43 43 43 42 41 40 39 39 39 39 39 39 39 40 40 40 40 40 40 40 40 40 39 38 38 37
43 44 44 45 45 45 46 46 47 47 47 48 48 48 48 49 49 49 49 50 50 51 51 51 51 50 49 49 48 48 48 47 47 46 46 46 46 46 46 45 44 44 44 44 44 43 43 42 41 40 39 40 40 40 40 40 40 40 40 40 40 40 40 40 40 40 39 39 39
43 44 44 45 45 46 46 47 47 47 48 48 48 48 49 49 49 49 50 50 50 51 51 51 49 48 47 46 46 46 46 46 46 46 46 47 47 46 46 46 45 45 45 44 44 43 43 42 42 41 40 40 40 41 41 41 42 41 41 41 41 41 42 42 42 41 40 40 40
43 44 45 45 46 47 47 48 48 48 48 48 48 49 49 49 49 49 49 49 49 49 48 48 47 46 46 45 45 46 46 46 46 46 46 46 47 46 46 45 45 45 45 44 44 43 43 42 42 41 41 40 40 41 41 41 42 42 42 42 42 42 42 42 42 42 41 40 40
43 44 45 46 47 47 48 48 48 48 48 48 49 49 49 49 49 49 49 48 48 47 47 46 46 46 46 45 46 46 46 46 46 45 45 45 45 45 46 46 46 46 46 45 44 44 43 43 42 41 40 40 40 41 41 42 42 42 42 42 42 42 42 42 42 42 41 40 39
44 45 46 47 47 48 49 49 49 49 49 49 49 49 49 49 49 48 48 47 47 47 47 46 45 46 46 46 46 45 45 45 44 44 44 45 45 45 46 46 46 47 46 46 45 45 44 43 43 42 41 40 40 40 41 42 43 43 43 42 42 42 42 41 41 41 41 40 39
44 45 46 47 48 49 49 49 49 49 49 49 49 49 49 49 48 48 47 46 46 46 46 45 45 45 46 45 45 44 44 44 44 44 44 44 45 45 46 47 47 47 47 47 46 45 45 44 43 43 42 41 40 40 41 42 43 44 44 44 44 44 43 43 42 42 42 41 41
45 46 47 48 49 49 49 49 49 49 49 49 49 49 49 49 49 48 47 46 45 45 45 45 44 44 44 45 45 45 45 45 45 45 45 45 46 47 47 48 48 48 48 47 47 46 46 45 44 43 42 42 41 41 41 42 43 44 44 45 45 45 45 45 44 44 44 44 43
46 46 47 48 49 49 49 49 49 49 49 50 50 49 49 48 48 47 47 46 45 44 44 44 44 44 44 44 44 45 45 46 46 46 47 47 47 48 50 50 50 49 49 48 48 47 47 46 46 45 44 43 42 42 42 42 43 43 44 44 45 45 45 45 46 46 46 46 45
46 47 48 49 49 49 49 49 49 49 50 50 50 49 49 48 47 46 46 45 44 44 43 43 43 43 44 44 44 45 46 47 47 48 48 48 49 50 51 52 51 50 50 50 49 49 48 47 47 46 45 44 43 43 43 44 44 44 45 45 45 44 44 44 44 44 45 45 45
46 47 48 48 49 49 49 49 49 49 50 50 49 49 48 47 46 45 44 43 43 43 43 43 43 44 44 45 45 46 46 47 48 48 49 49 50 51 52 53 52 51 50 50 50 50 49 48 47 46 45 44 44 44 44 45 45 45 45 46 45 45 44 43 43 43 43 43 43
46 47 47 48 48 48 48 48 49 49 49 49 48 48 47 45 45 44 43 42 42 42 42 43 44 44 45 45 46 46 46 47 48 49 49 49 50 51 52 52 52 51 50 50 50 50 49 49 48 46 45 45 45 45 45 45 45 46 46 46 46 46 45 43 43 43 42 42 42
46 46 46 47 47 47 48 48 48 48 48 47 47 46 45 44 43 43 42 41 41 41 42 44 44 45 45 45 46 46 46 46 47 48 49 49 48 49 50 51 51 50 49 49 49 49 49 48 47 46 45 44 44 44 45 45 45 46 46 46 46 45 44 43 43 43 43 42 42
45 45 45 45 46 46 47 47 47 47 46 45 45 44 43 43 42 42 41 40 40 41 42 44 45 45 45 45 46 46 46 46 45 46 47 47 46 46 47 48 49 49 48 47 47 47 46 46 45 44 44 43 43 44 44 45 45 45 45 45 44 44 44 43 43 43 43 42 41
45 45 45 44 45 46 46 47 47 46 45 43 43 42 42 42 42 41 40 40 40 41 42 44 44 44 44 44 45 46 46 45 44 44 44 44 44 43 44 45 46 46 45 44 44 43 43 42 42 41 41 41 42 42 43 44 44 44 44 44 43 43 43 42 42 42 42 42 41
44 44 44 44 44 45 46 46 45 44 43 42 41 41 41 41 41 41 40 41 40 41 42 43 43 43 43 43 44 45 46 45 43 42 41 41 41 41 42 42 43 43 42 41 41 40 39 38 37 36 36 37 39 40 41 42 43 43 43 43 42 42 41 41 41 41 41 41 40
Wind_Direction
309 310 310 309 308 307 307 306 306 305 305 305 305 305 305 305 305 306 306 306 307 307 307 307 307 306 306 306 305 305 305 305 306 306 307 307 307 307 307 307 307 307 307 307 307 308 309 310 311 312 313 313 313 313 312 310 309 308 307 306 305 304 303 300 296 292 287 282 279
304 305 306 306 305 305 304 304 304 304 304 304 305 305 305 305 305 305 305 306 306 306 306 306 306 306 305 305 304 303 303 303 303 304 305 306 306 306 306 305 305 305 304 304 304 304 305 306 308 309 310 311 311 311 311 310 309 309 307 305 304 303 302 299 296 291 287 282 279
298 297 297 298 299 300 301 302 303 303 304 304 304 305 305 305 305 305 305 304 304 304 304 304 304 303 303 303 302 302 301 301 301 302 302 303 304 304 304 304 303 303 302 302 301 301 302 303 304 305 306 307 308 309 309 309 309 308 307 305 304 303 301 299 296 292 287 282 279
296 294 293 295 297 299 301 303 304 305 305 305 305 305 305 305 305 305 304 303 303 302 302 301 301 301 300 300 300 300 299 299 299 299 299 300 301 301 302 302 302 301 300 299 298 298 298 299 300 301 302 303 304 305 306 307 307 307 306 304 304 302 301 298 296 292 287 282 278
299 297 296 297 299 301 303 305 306 307 307 307 307 307 306 306 306 305 304 303 302 301 300 300 299 299 298 298 298 298 298 298 298 298 298 298 298 299 299 300 300 299 298 297 296 296 296 296 297 297 299 300 301 302 303 304 305 305 304 303 302 301 300 298 296 292 288 282 278
302 301 300 301 302 304 305 306 307 308 309 309 309 309 308 307 307 306 305 304 302 301 300 299 298 298 298 298 298 298 298 297 297 297 297 297 296 296 297 297 298 298 297 297 296 295 294 294 295 295 296 297 299 300 301 302 302 303 302 302 301 300 299 297 295 292 288 283 278
303 303 303 304 305 306 307 308 309 310 310 311 311 310 310 309 308 306 305 303 302 301 299 299 298 298 298 299 299 299 298 298 297 297 296 296 295 295 295 295 295 296 296 296 295 295 294 294 294 294 294 295 296 298 299 300 300 301 300 300 299 298 297 296 295 293 289 284 279
303 304 304 305 306 307 308 309 310 311 312 312 312 311 310 310 308 307 305 304 302 301 300 299 299 299 299 299 299 299 298 298 297 296 295 295 294 294 294 294 294 294 294 294 294 294 294 294 292 292 293 293 295 296 297 298 298 299 298 298 297 296 295 294 294 292 289 286 280
304 305 305 306 307 308 309 310 311 312 312 312 312 311 310 309 308 307 305 303 302 301 301 300 299 299 298 298 298 297 297 296 296 295 294 294 294 293 293 293 293 293 293 293 293 293 293 293 292 291 292 292 292 293 295 296 296 296 296 295 295 294 293 293 292 291 289 287 282
306 306 307 307 308 309 310 311 311 311 311 311 311 310 309 309 307 306 305 303 302 301 300 299 299 298 298 297 296 295 295 294 294 294 293 293 293 293 293 293 293 293 293 293 292 292 291 291 290 290 290 290 290 291 292 293 294 294 293 293 293 292 291 291 290 290 289 287 284
307 307 308 309 310 310 311 311 311 311 311 310 310 310 309 308 307 306 305 303 302 301 300 299 299 298 297 296 295 295 294 294 293 293 293 292 292 292 292 292 292 292 292 291 290 290 289 288 288 288 288 288 289 289 290 291 291 292 292 291 291 291 290 289 289 289 288 287 285
308 308 309 310 310 310 310 310 310 310 310 310 310 309 309 308 307 306 305 304 303 301 300 300 299 299 298 297 296 295 295 294 294 293 293 292 291 291 290 290 290 290 289 289 288 288 287 286 286 286 286 286 286 286 287 288 289 289 289 290 290 289 288 287 287 287 287 287 285
308 309 309 309 310 310 310 309 309 309 309 308 308 307 307 306 306 305 305 304 303 302 301 301 300 299 299 298 297 297 296 295 295 294 293 293 292 291 290 289 289 288 288 287 286 286 285 284 284 284 284 284 284 284 284 285 285 286 286 287 287 287 286 286 285 285 285 285 284
308 308 308 309 309 309 309 308 308 308 307 306 306 305 305 305 305 304 304 304 303 303 302 301 300 300 299 299 298 298 297 296 295 295 294 293 292 291 290 289 288 288 287 286 285 284 284 283 283 282 282 282 282 282 282 282 282 282 283 283 284 284 284 284 284 284 284 283 283
307 308 308 308 308 308 308 307 307 306 305 305 304 304 304 304 304 304 304 303 303 302 302 301 301 300 299 299 299 298 297 296 296 295 294 293 292 291 290 289 288 287 286 285 284 283 282 281 281 280 280 280 280 280 280 279 279 278 279 279 280 281 282 282 282 282 282 281 281
308 308 308 308 308 308 307 306 305 305 304 304 304 304 304 304 304 304 303 303 303 302 302 301 301 301 300 299 299 298 297 296 296 294 293 292 291 290 289 288 287 286 285 283 282 281 280 279 278 278 278 278 278 278 277 277 276 275 274 274 276 277 279 280 280 280 279 279 279
309 309 309 308 308 307 306 306 305 305 305 304 305 305 304 304 304 304 304 303 303 303 302 302 302 301 301 300 299 298 297 296 295 294 292 291 290 289 288 287 286 284 283 282 280 279 278 277 277 276 276 275 275 275 274 274 273 272 271 271 271 272 274 276 277 278 278 277 277
310 309 309 308 307 307 306 306 306 306 306 305 305 305 305 305 305 304 304 304 303 303 303 302 302 301 301 300 299 298 297 295 294 293 291 290 289 288 287 286 284 283 282 281 279 278 277 276 275 275 274 273 273 272 271 271 270 269 268 267 267 268 270 272 274 275 275 274 275
309 309 308 308 307 307 307 307 307 307 306 306 306 305 305 305 305 304 304 304 304 303 303 302 302 301 301 300 299 298 297 295 293 292 291 289 288 287 285 284 283 282 281 280 278 277 276 275 274 274 273 272 271 270 269 268 267 266 265 265 265 265 266 267 269 271 272 272 273
309 309 309 309 308 308 308 308 307 307 307 306 306 305 305 305 305 304 304 304 304 303 303 302 302 301 300 300 299 298 297 295 293 291 290 289 287 286 284 283 282 281 280 278 277 276 275 274 273 272 271 270 269 268 267 266 265 264 264 263 263 263 263 264 266 268 270 271 271
310 310 310 309 309 309 308 308 307 307 306 306 305 305 305 305 305 304 304 304 304 304 303 302 302 301 300 300 299 298 296 295 293 291 290 288 287 285 284 282 281 280 279 277 276 275 274 272 271 270 269 268 267 266 265 264 263 263 262 262 262 262 262 263 263 265 267 268 268
311 310 310 310 309 309 308 307 307 306 306 305 305 305 305 305 305 305 305 305 304 304 303 303 302 301 301 300 298 297 296 295 293 291 290 289 287 286 285 283 281 280 279 277 276 275 273 272 271 269 268 267 266 265 264 263 262 262 261 261 261 261 261 261 262 262 264 265 265
311 311 310 310 309 308 308 307 307 306 306 306 306 306 306 306 306 306 306 306 305 305 305 304 303 302 301 300 299 297 296 295 293 292 291 290 289 288 286 285 283 281 280 278 277 276 274 273 272 270 269 267 266 264 263 262 261 261 261 260 260 261 261 260 260 260 261 262 262
312 311 310 310 309 308 308 307 307 307 307 307 307 307 307 307 307 308 308 307 307 307 306 306 305 303 302 300 299 297 296 295 294 293 293 292 291 289 288 286 284 282 281 279 277 276 275 273 272 271 269 267 266 264 263 262 261 261 260 260 260 260 260 260 259 259 260 259 259
311 311 310 310 309 309 309 308 308 308 308 308 309 309 309 309 309 309 309 309 309 308 307 307 305 304 302 301 300 298 297 296 295 294 294 293 292 291 290 288 286 284 282 280 278 277 275 273 271 270 268 267 265 264 263 262 261 260 260 259 259 259 259 259 259 258 258 257 255
312 311 311 311 310 310 310 310 310 310 310 310 310 310 311 311 311 311 311 310 310 309 308 307 306 305 303 302 301 300 299 298 297 296 295 294 293 292 291 289 286 284 282 280 279 277 275 273 271 268 266 265 264 263 262 261 261 260 260 259 258 258 257 257 257 257 256 255 254
313 313 313 312 312 312 312 312 312 312 312 312 312 312 312 313 313 312 312 311 310 309 309 308 306 305 304 303 301 300 299 298 297 296 295 294 293 292 291 289 287 285 282 280 279 277 275 273 271 268 266 264 263 262 262 261 260 260 259 259 258 257 256 256 255 255 255 254 253
315 315 314 314 314 313 313 313 313 313 314 314 314 314 314 314 314 313 312 311 310 309 309 308 307 306 304 303 301 300 299 298 297 296 295 294 293 291 290 289 288 286 285 283 281 279 277 274 271 269 266 264 263 263 262 261 261 260 259 258 258 257 257 256 256 255 254 254 253
316 316 316 315 315 315 314 315 315 315 315 315 315 315 315 315 314 313 312 311 310 309 307 307 306 305 303 301 300 300 299 299 298 297 296 295 294 292 291 290 288 288 287 286 284 282 280 277 274 271 267 264 263 262 261 261 260 260 259 258 257 257 256 256 255 255 254 254 253
318 317 317 316 316 316 316 316 316 316 316 316 316 316 315 314 314 313 312 310 309 308 306 306 305 303 302 301 301 300 300 299 299 298 296 294 293 292 291 291 290 289 289 287 286 284 282 280 277 274 271 267 263 261 259 259 259 258 258 257 256 255 254 254 254 254 253 252 252
318 318 318 317 317 317 317 317 317 317 317 317 317 316 315 314 313 312 311 309 308 307 307 306 304 303 303 303 302 301 300 300 299 298 296 294 292 292 292 291 291 290 289 288 286 284 282 280 278 276 274 271 266 262 259 258 257 256 255 255 254 253 252 252 251 251 251 250 250
319 319 318 318 318 318 318 318 318 318 318 318 317 316 315 314 313 311 310 309 308 307 307 306 305 305 305 305 304 303 302 301 300 299 297 295 294 293 293 292 292 291 290 289 287 285 283 281 278 276 274 272 269 265 262 259 257 256 255 254 253 252 251 250 250 249 249 249 249
319 319 319 319 319 319 319 319 319 319 318 318 317 316 315 314 313 312 311 310 309 309 308 308 307 306 306 306 305 305 304 303 302 301 300 298 297 296 295 294 294 293 292 291 289 287 285 282 280 278 275 273 270 267 264 262 260 258 256 255 253 252 251 250 250 249 249 249 249
320 320 319 319 319 319 319 320 319 319 319 318 317 316 315 314 313 312 312 312 311 311 311 310 309 309 308 308 307 306 305 305 305 304 304 302 300 299 298 297 296 295 294 293 290 288 286 284 281 279 276 274 271 267 265 263 261 260 258 257 256 254 253 252 251 250 250 250 249
320 320 320 320 320 320 320 320 320 320 319 318 317 316 316 315 314 313 313 314 314 313 313 312 312 311 310 309 308 307 307 307 306 306 306 305 303 301 300 299 298 298 297 295 292 289 287 284 282 279 277 274 270 267 264 262 261 260 259 258 258 256 255 254 253 252 251 251 250
321 321 321 321 321 321 321 321 321 320 319 318 317 317 316 316 315 315 315 316 315 314 313 313 313 312 311 310 310 309 308 307 307 307 307 306 304 302 301 301 301 300 299 297 294 291 288 286 283 280 277 273 269 266 264 262 260 259 259 259 258 258 257 255 254 254 253 253 252
321 321 321 322 322 322 322 321 321 320 319 318 318 317 317 317 316 317 317 318 316 314 314 314 313 313 312 312 311 310 310 309 308 308 307 307 306 304 303 303 303 303 303 300 297 294 290 287 284 281 277 272 268 265 263 261 259 258 258 258 257 257 257 256 256 255 254 253 252
322 322 322 322 322 322 322 321 321 320 319 319 318 318 318 318 318 318 319 319 316 314 314 314 314 314 314 313 313 312 312 311 310 309 309 308 308 307 306 305 305 305 305 303 300 296 292 288 284 281 276 271 267 264 261 259 258 257 256 256 256 256 257 256 256 255 255 254 253
322 322 323 323 323 322 322 321 321 320 320 319 320 320 320 320 320 320 320 320 317 314 313 314 314 315 315 315 314 313 313 313 313 312 311 311 311 311 310 308 307 307 307 306 303 298 294 290 286 281 276 271 266 263 260 258 257 256 255 255 255 255 255 255 255 255 255 255 254
323 323 323 323 323 323 322 322 321 321 321 321 322 322 322 321 321 321 321 321 318 316 314 314 315 315 316 316 315 314 314 315 316 315 315 315 315 315 313 310 309 309 310 310 307 304 299 295 289 284 278 271 266 262 259 257 255 255 254 253 253 253 253 253 253 253 254 255 254
323 324 324 324 324 323 323 322 323 323 323 323 324 323 323 322 322 322 322 321 319 317 316 316 316 317 317 317 316 316 316 318 319 320 320 320 320 318 315 314 312 311 312 312 312 310 306 300 294 287 280 271 265 260 257 255 253 252 252 252 252 251 251 252 252 253 253 254 255
Height
1475 1475 1474 1474 1473 1472 1471 1471 1470 1469 1469 1468 1467 1466 1465 1464 1463 1462 1461 1461 1460 1459 1458 1457 1456 1456 1455 1454 1454 1453 1452 1452 1451 1451 1451 1450 1450 1449 1448 1448 1447 1447 1446 1446 1445 1445 1444 1444 1443 1442 1441 1441 1440 1439 1439 1438 1437 1437 1436 1436 1436 1435 1435 1434 1433 1433 1433 1432 1432
1473 1473 1472 1471 1471 1470 1469 1468 1468 1467 1466 1466 1465 1464 1463 1462 1461 1460 1459 1459 1458 1457 1456 1455 1454 1453 1453 1452 1451 1451 1450 1449 1449 1448 1448 1447 1447 1446 1446 1446 1445 1444 1444 1443 1442 1442 1441 1441 1441 1440 1439 1438 1438 1437 1436 1436 1435 1435 1434 1434 1433 1433 1433 1432 1431 1431 1431 1430 1430
1471 1471 1470 1469 1468 1468 1467 1466 1466 1465 1464 1464 1463 1462 1461 1461 1460 1458 1457 1456 1456 1455 1454 1453 1452 1451 1450 1449 1449 1448 1447 1446 1446 1445 1445 1445 1444 1444 1444 1443 1442 1442 1441 1440 1440 1439 1438 1438 1438 1437 1437 1436 1436 1435 1434 1434 1433 1432 1431 1431 1431 1431 1430 1430 1429 1429 1428 1428 1428
1469 1469 1468 1467 1466 1466 1465 1465 1464 1463 1463 1462 1461 1461 1460 1459 1458 1457 1456 1454 1453 1452 1451 1451 1450 1449 1448 1447 1446 1446 1445 1444 1443 1442 1442 1441 1441 1441 1441 1440 1440 1439 1438 1438 1437 1436 1436 1435 1435 1434 1434 1434 1433 1432 1432 1431 1431 1430 1429 1428 1428 1428 1428 1427 1427 1427 1426 1426 1425
1468 1467 1466 1466 1465 1465 1464 1463 1462 1462 1461 1460 1459 1459 1458 1457 1456 1455 1454 1452 1451 1450 1449 1448 1447 1446 1446 1445 1444 1443 1442 1441 1441 1440 1439 1438 1438 1438 1438 1437 1436 1436 1435 1435 1434 1433 1433 1432 1431 1431 1431 1431 1430 1430 1429 1429 1428 1427 1426 1426 1426 1426 1425 1425 1424 1424 1424 1423 1423
1466 1466 1465 1464 1464 1463 1462 1461 1461 1460 1459 1458 1457 1456 1456 1455 1454 1452 1451 1450 1449 1448 1447 1446 1445 1444 1443 1442 1441 1440 1439 1438 1437 1436 1436 1435 1435 1435 1434 1434 1433 1433 1432 1431 1431 1431 1430 1429 1428 1428 1427 1427 1427 1427 1426 1426 1426 1425 1424 1423 1423 1422 1422 1422 1421 1422 1421 1421 1421
1464 1464 1463 1462 1462 1461 1460 1459 1459 1458 1457 1456 1455 1454 1453 1452 1451 1450 1449 1448 1446 1445 1444 1443 1442 1441 1440 1439 1438 1437 1436 1435 1434 1433 1433 1432 1431 1431 1431 1430 1430 1430 1429 1428 1428 1427 1426 1426 1425 1425 1424 1424 1424 1423 1423 1424 1423 1422 1421 1420 1420 1420 1419 1419 1419 1419 1419 1418 1418
1463 1462 1461 1461 1460 1459 1458 1457 1456 1455 1454 1453 1453 1451 1451 1450 1449 1447 1446 1445 1444 1443 1442 1441 1440 1438 1437 1436 1435 1434 1433 1432 1431 1430 1430 1429 1428 1427 1427 1427 1426 1426 1426 1425 1425 1424 1423 1422 1422 1421 1421 1420 1420 1420 1420 1421 1420 1419 1418 1417 1416 1416 1416 1416 1416 1416 1416 1416 1415
1461 1460 1460 1459 1458 1457 1456 1455 1454 1453 1452 1451 1450 1449 1448 1447 1446 1445 1444 1442 1441 1440 1439 1438 1437 1436 1435 1433 1432 1431 1430 1429 1428 1427 1426 1426 1425 1424 1423 1423 1423 1422 1422 1421 1421 1421 1420 1419 1418 1417 1417 1417 1416 1416 1416 1417 1417 1416 1416 1415 1414 1413 1413 1412 1412 1412 1412 1412 1412
1459 1458 1458 1457 1456 1455 1454 1453 1452 1451 1450 1448 1447 1446 1446 1444 1443 1442 1441 1440 1438 1437 1436 1435 1434 1433 1432 1431 1430 1428 1427 1426 1425 1424 1423 1422 1422 1421 1420 1420 1419 1419 1418 1418 1417 1417 1416 1415 1414 1413 1413 1413 1413 1412 1412 1413 1413 1413 1412 1411 1411 1410 1410 1409 1409 1409 1409 1409 1409
1457 1456 1456 1455 1454 1453 1452 1451 1449 1448 1447 1446 1445 1444 1442 1441 1440 1439 1438 1437 1435 1434 1433 1432 1431 1430 1428 1427 1426 1425 1424 1423 1422 1421 1420 1419 1419 1418 1417 1416 1416 1415 1415 1414 1414 1414 1413 1412 1411 1410 1409 1409 1409 1409 1408 1409 1409 1409 1409 1408 1408 1407 1406 1406 1406 1406 1405 1405 1406
1456 1455 1454 1453 1451 1451 1449 1448 1447 1446 1445 1443 1442 1441 1440 1438 1437 1436 1435 1433 1432 1430 1429 1428 1427 1426 1425 1423 1422 1421 1421 1420 1418 1417 1416 1416 1415 1414 1414 1413 1412 1412 1411 1411 1411 1410 1409 1408 1407 1406 1406 1405 1405 1405 1405 1404 1405 1405 1405 1405 1404 1404 1403 1402 1402 1402 1402 1402 1402
1454 1452 1451 1451 1450 1448 1447 1446 1445 1443 1442 1441 1440 1438 1437 1436 1434 1433 1431 1430 1428 1427 1426 1424 1423 1422 1421 1420 1418 1417 1416 1416 1415 1413 1412 1411 1411 1410 1410 1409 1408 1408 1407 1407 1406 1406 1405 1404 1404 1403 1402 1402 1401 1401 1401 1401 1401 1401 1401 1401 1401 1400 1400 1399 1399 1399 1399 1399 1398
1451 1451 1450 1449 1447 1446 1445 1444 1443 1441 1440 1439 1437 1436 1435 1433 1431 1430 1429 1427 1425 1423 1422 1421 1420 1418 1417 1416 1415 1414 1412 1411 1411 1409 1408 1407 1406 1406 1405 1404 1404 1404 1403 1403 1402 1402 1401 1401 1400 1399 1399 1398 1398 1397 1397 1397 1397 1396 1396 1396 1396 1396 1396 1396 1396 1396 1396 1395 1395
1450 1449 1448 1447 1446 1445 1443 1442 1441 1439 1438 1436 1435 1434 1432 1430 1429 1427 1426 1424 1422 1420 1419 1417 1416 1415 1413 1412 1411 1410 1409 1407 1406 1405 1404 1403 1402 1401 1401 1400 1400 1399 1399 1398 1398 1398 1397 1397 1396 1396 1395 1395 1394 1394 1394 1393 1393 1393 1392 1392 1392 1392 1392 1392 1393 1393 1392 1392 1391
1448 1447 1446 1445 1444 1442 1441 1440 1438 1437 1435 1434 1432 1431 1429 1427 1426 1424 1422 1421 1419 1417 1416 1414 1412 1411 1409 1408 1407 1406 1405 1403 1402 1401 1400 1399 1398 1397 1396 1396 1395 1395 1395 1394 1394 1393 1393 1393 1392 1392 1391 1391 1391 1390 1390 1390 1390 1389 1389 1388 1388 1388 1388 1388 1389 1389 1389 1388 1388
1446 1445 1444 1443 1441 1440 1439 1437 1436 1434 1432 1431 1429 1427 1426 1424 1422 1421 1419 1417 1416 1414 1412 1410 1409 1407 1406 1404 1403 1402 1401 1400 1398 1397 1396 1395 1394 1393 1392 1391 1391 1391 1390 1390 1389 1389 1389 1388 1388 1388 1388 1387 1387 1386 1386 1386 1386 1386 1385 1385 1384 1384 1384 1385 1385 1385 1385 1385 1385
1444 1443 1442 1441 1439 1437 1436 1435 1433 1431 1429 1428 1426 1424 1422 1421 1419 1417 1416 1414 1412 1410 1408 1406 1405 1404 1402 1401 1399 1398 1397 1396 1394 1393 1392 1391 1390 1389 1388 1387 1386 1386 1386 1385 1385 1384 1384 1384 1384 1384 1383 1383 1383 1382 1382 1382 1382 1382 1381 1381 1381 1381 1381 1381 1381 1381 1381 1381 1381
1442 1441 1439 1438 1436 1435 1433 1431 1430 1428 1426 1424 1423 1421 1419 1417 1416 1414 1412 1410 1409 1407 1405 1403 1401 1400 1398 1397 1395 1394 1393 1391 1390 1388 1387 1386 1385 1384 1383 1382 1381 1381 1381 1381 1380 1380 1379 1379 1379 1379 1379 1379 1378 1378 1378 1378 1378 1377 1377 1377 1377 1377 1377 1377 1377 1377 1378 1378 1377
1440 1438 1437 1435 1434 1432 1430 1428 1427 1425 1423 1421 1419 1417 1416 1414 1412 1411 1408 1406 1405 1403 1401 1399 1397 1396 1394 1392 1391 1389 1388 1387 1386 1384 1382 1381 1380 1379 1378 1378 1377 1376 1376 1376 1375 1375 1374 1374 1374 1374 1374 1374 1374 1374 1374 1374 1374 1373 1373 1373 1373 1373 1373 1373 1373 1374 1374 1374 1374
1437 1436 1434 1433 1431 1429 1427 1426 1424 1422 1420 1418 1416 1414 1412 1410 1409 1407 1405 1403 1401 1400 1398 1396 1394 1392 1390 1388 1386 1385 1383 1382 1381 1379 1377 1376 1375 1374 1373 1373 1372 1371 1371 1370 1370 1369 1369 1369 1369 1369 1369 1369 1369 1369 1369 1369 1369 1369 1369 1369 1369 1369 1369 1369 1370 1370 1370 1370 1371
1435 1433 1432 1430 1428 1426 1424 1422 1421 1418 1416 1414 1412 1411 1409 1407 1405 1403 1401 1399 1397 1396 1394 1391 1390 1388 1386 1384 1382 1380 1378 1377 1376 1374 1372 1371 1370 1369 1368 1368 1367 1366 1365 1365 1364 1364 1363 1363 1363 1364 1364 1364 1364 1364 1364 1364 1364 1364 1364 1365 1365 1365 1365 1365 1366 1366 1366 1366 1366
1432 1431 1429 1427 1425 1423 1421 1419 1417 1415 1413 1411 1409 1407 1405 1403 1401 1399 1397 1396 1393 1391 1389 1387 1386 1383 1381 1380 1378 1376 1374 1372 1370 1368 1367 1366 1365 1364 1363 1362 1361 1361 1360 1359 1358 1358 1358 1358 1358 1358 1359 1359 1359 1359 1359 1360 1360 1360 1360 1360 1360 1360 1360 1361 1361 1361 1362 1362 1362
1430 1428 1426 1424 1422 1420 1418 1416 1414 1412 1410 1407 1406 1404 1401 1399 1397 1395 1393 1391 1389 1387 1385 1383 1381 1379 1377 1375 1373 1371 1369 1367 1365 1363 1362 1361 1360 1359 1358 1357 1356 1355 1354 1354 1353 1353 1353 1353 1353 1353 1354 1354 1354 1354 1355 1355 1355 1355 1355 1355 1355 1356 1356 1356 1356 1357 1358 1358 1358
1427 1425 1423 1421 1419 1417 1415 1413 1411 1408 1406 1404 1402 1400 1398 1396 1394 1391 1389 1387 1385 1383 1381 1379 1376 1375 1372 1370 1368 1366 1365 1363 1361 1359 1357 1356 1355 1354 1353 1352 1351 1350 1349 1348 1348 1348 1348 1349 1349 1349 1350 1350 1350 1350 1350 1350 1350 1350 1350 1351 1351 1351 1351 1351 1352 1353 1353 1354 1354
1424 1422 1420 1418 1416 1414 1411 1410 1407 1405 1403 1401 1399 1397 1395 1392 1390 1388 1386 1383 1381 1379 1377 1375 1372 1370 1368 1366 1364 1361 1360 1358 1356 1355 1353 1351 1350 1349 1348 1348 1347 1346 1345 1344 1343 1343 1344 1344 1345 1345 1346 1346 1346 1346 1346 1346 1346 1346 1346 1346 1346 1346 1347 1347 1347 1348 1348 1349 1350
1421 1419 1417 1415 1413 1411 1408 1406 1404 1402 1400 1398 1396 1393 1391 1389 1386 1384 1382 1379 1377 1375 1372 1370 1368 1366 1364 1361 1359 1357 1356 1354 1353 1351 1349 1348 1346 1345 1343 1343 1342 1341 1340 1339 1339 1339 1339 1339 1340 1341 1341 1341 1341 1341 1341 1341 1341 1341 1341 1341 1342 1342 1342 1342 1342 1343 1344 1344 1345
1418 1416 1414 1412 1410 1407 1405 1403 1401 1399 1396 1394 1392 1390 1387 1385 1383 1381 1378 1376 1373 1371 1368 1366 1364 1362 1360 1358 1356 1353 1352 1350 1349 1347 1345 1344 1342 1341 1339 1338 1337 1336 1335 1335 1335 1334 1334 1335 1335 1336 1336 1337 1337 1337 1337 1337 1337 1337 1337 1337 1337 1337 1337 1337 1338 1338 1339 1340 1341
1416 1413 1411 1409 1406 1404 1402 1400 1398 1396 1393 1391 1389 1386 1384 1381 1379 1377 1374 1372 1369 1367 1365 1362 1361 1358 1356 1354 1352 1350 1348 1346 1345 1343 1341 1339 1337 1336 1335 1333 1332 1331 1330 1330 1330 1330 1329 1329 1330 1330 1331 1332 1333 1333 1333 1332 1332 1332 1332 1332 1332 1332 1333 1333 1333 1334 1335 1335 1336
1413 1411 1408 1406 1403 1401 1399 1397 1395 1393 1390 1388 1386 1383 1381 1378 1376 1373 1371 1368 1366 1364 1362 1360 1357 1355 1352 1350 1348 1346 1344 1342 1341 1339 1337 1335 1333 1331 1330 1329 1328 1326 1326 1325 1325 1325 1325 1324 1325 1325 1326 1326 1328 1328 1328 1328 1327 1327 1327 1327 1327 1328 1328 1329 1329 1330 1330 1331 1332
1410 1408 1406 1403 1401 1398 1396 1394 1392 1390 1387 1385 1382 1380 1377 1375 1372 1370 1368 1365 1363 1360 1358 1356 1354 1351 1349 1346 1345 1343 1340 1338 1337 1335 1333 1331 1330 1328 1326 1325 1323 1322 1321 1321 1321 1320 1320 1320 1320 1320 1321 1321 1322 1323 1322 1322 1322 1322 1322 1322 1322 1323 1323 1324 1325 1326 1326 1327 1328
1407 1405 1403 1400 1398 1396 1393 1391 1389 1386 1384 1382 1379 1377 1374 1371 1369 1367 1365 1362 1360 1357 1354 1352 1350 1347 1345 1343 1341 1339 1337 1335 1333 1331 1330 1328 1326 1324 1322 1321 1319 1318 1317 1316 1316 1316 1315 1315 1315 1315 1316 1316 1317 1317 1317 1317 1317 1317 1317 1317 1317 1318 1319 1320 1321 1321 1321 1322 1323
1405 1403 1400 1398 1395 1393 1390 1388 1386 1383 1381 1378 1376 1374 1371 1368 1366 1363 1361 1359 1356 1354 1351 1349 1346 1344 1341 1339 1337 1335 1333 1331 1329 1327 1326 1324 1322 1320 1318 1316 1314 1313 1312 1311 1311 1311 1310 1310 1310 1310 1310 1311 1311 1312 1311 1311 1311 1311 1311 1311 1312 1313 1314 1315 1316 1316 1317 1318 1319
1402 1400 1397 1395 1392 1390 1387 1385 1383 1380 1378 1375 1373 1370 1368 1366 1362 1360 1357 1355 1353 1350 1348 1345 1343 1341 1338 1336 1334 1331 1329 1327 1325 1323 1321 1320 1318 1316 1314 1311 1309 1308 1307 1307 1306 1306 1305 1305 1305 1305 1305 1306 1306 1306 1306 1306 1306 1306 1306 1306 1306 1307 1308 1309 1310 1311 1312 1313 1314
1400 1397 1395 1392 1390 1387 1385 1382 1380 1377 1375 1372 1370 1367 1365 1362 1360 1357 1354 1351 1349 1347 1344 1342 1340 1337 1335 1333 1331 1329 1326 1324 1321 1320 1318 1316 1314 1312 1309 1306 1304 1303 1302 1302 1301 1300 1300 1300 1299 1300 1300 1301 1301 1301 1301 1301 1301 1301 1301 1301 1301 1302 1303 1304 1305 1306 1307 1308 1309
1398 1395 1392 1390 1387 1385 1382 1380 1377 1375 1372 1369 1366 1364 1361 1359 1356 1354 1351 1349 1346 1344 1341 1338 1336 1334 1332 1330 1328 1326 1324 1321 1319 1316 1314 1312 1311 1308 1305 1302 1300 1298 1297 1297 1296 1295 1294 1294 1294 1294 1295 1296 1296 1296 1296 1296 1296 1296 1296 1296 1296 1296 1298 1299 1300 1301 1302 1303 1304
1396 1393 1390 1387 1385 1382 1380 1377 1375 1372 1369 1366 1364 1361 1358 1356 1353 1351 1348 1346 1344 1341 1338 1336 1333 1331 1329 1327 1325 1323 1321 1319 1316 1314 1311 1309 1307 1305 1301 1298 1295 1293 1292 1292 1291 1290 1289 1288 1288 1289 1290 1291 1291 1291 1291 1291 1291 1291 1291 1291 1291 1292 1293 1294 1296 1296 1297 1298 1299
1393 1391 1388 1385 1382 1380 1377 1375 1372 1369 1366 1363 1361 1358 1356 1353 1351 1348 1346 1344 1342 1339 1336 1333 1331 1328 1326 1324 1322 1320 1317 1315 1314 1311 1308 1305 1303 1301 1298 1295 1291 1289 1288 1287 1286 1284 1283 1283 1283 1283 1284 1286 1286 1286 1286 1286 1286 1286 1286 1286 1287 1287 1289 1290 1291 1292 1292 1293 1294
1391 1389 1386 1383 1381 1378 1375 1372 1370 1367 1364 1361 1358 1356 1353 1351 1348 1346 1343 1342 1340 1337 1334 1331 1328 1326 1324 1322 1320 1317 1314 1312 1310 1308 1306 1302 1300 1298 1295 1292 1288 1285 1283 1282 1281 1280 1278 1278 1277 1278 1279 1280 1280 1281 1281 1281 1281 1281 1281 1282 1283 1284 1285 1286 1287 1287 1288 1288 1290
1389 1386 1384 1381 1379 1376 1373 1370 1367 1365 1362 1359 1356 1353 1351 1348 1346 1343 1341 1339 1337 1335 1332 1329 1326 1324 1321 1320 1317 1314 1311 1309 1306 1305 1302 1300 1297 1295 1292 1289 1286 1282 1280 1278 1276 1275 1273 1272 1272 1272 1273 1274 1275 1276 1276 1276 1277 1277 1277 1278 1279 1280 1281 1281 1282 1283 1284 1284 1286
1387 1385 1382 1379 1377 1374 1371 1368 1365 1362 1360 1357 1354 1351 1348 1346 1343 1341 1339 1337 1335 1333 1330 1327 1324 1322 1320 1317 1315 1312 1309 1306 1303 1301 1299 1297 1295 1292 1289 1286 1283 1279 1276 1274 1273 1271 1269 1268 1267 1267 1268 1269 1270 1271 1271 1272 1272 1272 1273 1274 1275 1276 1277 1278 1279 1279 1280 1281 1281